TimeEST,TemperatureF,Dew PointF,Humidity,Sea Level PressureIn,VisibilityMPH,Wind Direction,Wind SpeedMPH,Gust SpeedMPH,PrecipitationIn,Events,Conditions,WindDirDegrees,DateUTC
12:54 AM,35.1,30.9,85,29.76,10.0,WSW,8.1,-,N/A,,Clear,240,2014-02-14 05:54:00
1:54 AM,34.0,30.9,89,29.76,10.0,SW,6.9,-,N/A,,Clear,230,2014-02-14 06:54:00
2:54 AM,34.0,30.9,89,29.78,9.0,SW,9.2,-,N/A,,Clear,230,2014-02-14 07:54:00
3:54 AM,34.0,30.9,89,29.81,8.0,SW,9.2,-,N/A,,Clear,230,2014-02-14 08:54:00
4:54 AM,34.0,30.0,85,29.83,10.0,WSW,11.5,-,N/A,,Clear,240,2014-02-14 09:54:00
5:54 AM,33.1,30.0,89,29.83,10.0,WSW,6.9,-,N/A,,Clear,240,2014-02-14 10:54:00
6:54 AM,33.1,30.0,89,29.84,9.0,SSW,10.4,-,N/A,,Clear,200,2014-02-14 11:54:00
7:54 AM,33.1,28.9,85,29.85,8.0,SW,10.4,-,N/A,,Clear,220,2014-02-14 12:54:00
8:54 AM,36.0,30.0,79,29.86,10.0,SW,12.7,-,N/A,,Clear,230,2014-02-14 13:54:00
9:54 AM,39.0,30.0,70,29.87,10.0,WSW,12.7,-,N/A,,Clear,250,2014-02-14 14:54:00
10:54 AM,39.9,30.0,68,29.86,10.0,WSW,10.4,-,N/A,,Clear,240,2014-02-14 15:54:00
11:54 AM,44.1,32.0,63,29.84,10.0,SW,5.8,-,N/A,,Clear,220,2014-02-14 16:54:00
12:54 PM,48.0,35.1,61,29.83,10.0,WSW,5.8,-,N/A,,Clear,240,2014-02-14 17:54:00
1:54 PM,52.0,35.1,53,29.82,10.0,SW,12.7,-,N/A,,Clear,230,2014-02-14 18:54:00
2:54 PM,54.0,36.0,51,29.83,10.0,West,12.7,-,N/A,,Clear,260,2014-02-14 19:54:00
3:54 PM,54.0,36.0,51,29.81,10.0,SW,10.4,-,N/A,,Clear,230,2014-02-14 20:54:00
4:54 PM,53.1,36.0,52,29.80,10.0,SW,6.9,-,N/A,,Clear,220,2014-02-14 21:54:00
5:54 PM,50.0,36.0,59,29.79,10.0,SSW,3.5,-,N/A,,Clear,210,2014-02-14 22:54:00
6:54 PM,42.1,37.9,85,29.81,10.0,SW,3.5,-,N/A,,Clear,220,2014-02-14 23:54:00
7:54 PM,44.1,37.0,76,29.81,10.0,South,4.6,-,N/A,,Clear,170,2014-02-15 00:54:00
8:54 PM,46.9,36.0,66,29.79,10.0,South,4.6,-,N/A,,Clear,170,2014-02-15 01:54:00
9:54 PM,46.9,36.0,66,29.78,10.0,South,4.6,-,N/A,,Clear,180,2014-02-15 02:54:00
10:54 PM,48.0,36.0,63,29.78,10.0,South,8.1,-,N/A,,Clear,190,2014-02-15 03:54:00
11:54 PM,46.9,37.0,68,29.74,10.0,South,4.6,-,N/A,,Clear,180,2014-02-15 04:54:00